Location: Anjeux
(47.8815°N, 6.2076°E)
Time: 10:04:33
(UTC+00:00)

AO-27 - Pass Details

Date: 18 December 2021
Orbit: 784 x 798 km, 98.9° (Epoch: 24 January)

Event Time Altitude Azimuth Distance (km) Brightness Sun altitude
Rises 17:40:48 0° 155° (SSE) 3,291 10.8 -18.6°
Reaches altitude 10° 17:43:07 10° 153° (SSE) 2,366 10.0 -18.9°
Maximum altitude 17:48:18 68° 71° (ENE) 862 7.6 -19.8°
Drops below altitude 10° 17:53:31 10° 350° (N) 2,381 10.1 -20.6°
Sets 17:55:52 0° 348° (NNW) 3,314 10.9 -21.0°
